Preview of NWS' New Version of Forecast
This preview is not operational and should not be used for support decisions.

Regional Weather Roundup (RWR)

Issued by Goodland, KS (GLD)

                            
000
ASUS43 KGLD 241608
RWRGLD

GOODLAND FORECAST AREA HOURLY WEATHER ROUNDUP
NATIONAL WEATHER SERVICE GOODLAND KS
1000 AM MDT WED APR 24 2019

...OFFICIAL OBSERVATIONS...
  
CITY           SKY/WX    TMP DP  RH WIND       PRES   REMARKS
GOODLAND KS    SUNNY     65  43  44 W6        29.94F                  
HILL CITY KS   SUNNY     68  42  38 VRB5      29.93S                  
IMPERIAL NEB   SUNNY     63  39  41 VRB3      29.93F                  
MCCOOK NEB     SUNNY     64  44  48 W7        29.91F                  
AKRON CO       PTSUNNY   62  42  47 W7        29.97S                  
BURLINGTON CO  SUNNY     66  39  37 CALM      29.96F                  
LIMON CO       SUNNY     63  31  30 NW7G18    30.00S                  
$$

...UNOFFICIAL OBSERVATIONS...
  
CITY           SKY/WX    TMP DP  RH WIND       PRES   REMARKS
COLBY KS       SUNNY     64  37  36 SW6       29.94F                  
NORTON KS      SUNNY     70  39  32 W8        29.94                   
SHARON SPRINGS   N/A     67  38  34 SW5         N/A                   
TRIBUNE KS     SUNNY     66  45  45 W6        29.98S                  
KIT CARSON CO    N/A     61  43  51 CALM        N/A                   
$$